sat.trackr.live / text

‹ back to catalog

STARLINK-35392

NORAD 65823 · 2025-221A

PAYLOAD ACTIVE UNKNOWN

§ Identity

Operator
Country
US
Launch date
2025-09-29
Launch site
AFWTR
Launch vehicle
Mass (kg)
RCS (m²)

Purposes: comms

External: N2YO · Heavens-Above · Gunter

§ Orbital elements

Epoch: 2026-05-25T03:23:19.868352Z

Period
94.10 min
Inclination
53.1569°
Eccentricity
0.0001039
Mean motion
15.30207677 rev/d
Perigee alt
474.5 km
Apogee alt
475.9 km
Semi-major
6,853.3 km
B*
4.8956e-4
RAAN
93.5771°
Arg perigee
84.9295°
Mean anomaly
275.1824°
Rev number
3,778

§ Raw data

STARLINK-353921 65823U 25221A   26145.14120218  .00014171  00000+0  48956-3 0  99912 65823  53.1569  93.5771 0001039  84.9295 275.1824 15.30207677 37789

JSON: /api/v1/satellites/65823 · /tle

For live sub-satellite position, see the globe view (requires WebGL).

§ Visibility from observer

Set your observer location to see the next 7 days of passes ≥ 10°. The values pass through the URL so the page stays shareable.

No JS? Fill the form by hand. The geolocation button needs JavaScript.